ProjectID,Date,Electric Generation,Electric Utility Import,Facility Electric Load
,YYYY-MM-DD,kW,kW,kW
426,2017-01-01,24.052083333333332,,24.052083333333332
426,2017-01-02,5.4033750000000005,,5.4033750000000005
426,2017-01-03,1.7352916666666667,,1.7352916666666667
426,2017-01-04,7.0172083333333335,,7.0172083333333335
426,2017-01-05,18.21075,,18.21075
426,2017-01-06,10.449541666666667,,10.449541666666667
426,2017-01-07,1.7503333333333335,,1.7503333333333335
426,2017-01-08,0.823,,0.823
426,2017-01-09,1.0550833333333334,,1.0550833333333334
426,2017-01-10,1.748375,,1.748375
426,2017-01-11,19.173833333333334,,19.173833333333334
426,2017-01-12,6.53375,,6.53375
426,2017-01-13,27.532875,,27.532875
426,2017-01-14,12.077916666666667,,12.077916666666667
426,2017-01-15,26.015874999999998,,26.015874999999998
426,2017-01-16,28.144958333333335,,28.144958333333335
426,2017-01-17,3.4808333333333334,,3.4808333333333334
426,2017-01-18,4.726333333333334,,4.726333333333334
426,2017-01-19,14.790083333333333,,14.790083333333333
426,2017-01-20,7.491125,,7.491125
426,2017-01-21,22.260166666666667,,22.260166666666667
426,2017-01-22,8.047375,,8.047375
426,2017-01-23,3.8625833333333333,,3.8625833333333333
426,2017-01-24,0.013833333333333335,,0.013833333333333335
426,2017-01-25,1.44575,,1.44575
426,2017-01-26,5.142833333333333,,5.142833333333333
426,2017-01-27,8.09425,,8.09425
426,2017-01-28,7.213416666666667,,7.213416666666667
426,2017-01-29,18.764583333333334,,18.764583333333334
426,2017-01-30,28.811541666666667,,28.811541666666667
426,2017-01-31,4.375,,4.375
426,2017-02-01,14.294208333333332,,14.294208333333332
426,2017-02-02,23.454291666666666,,23.454291666666666
426,2017-02-03,29.67725,,29.67725
426,2017-02-04,38.68116666666666,,38.68116666666666
426,2017-02-05,15.853,,15.853
426,2017-02-06,33.855,,33.855
426,2017-02-07,3.51,,3.51
426,2017-02-08,30.74745833333333,,30.74745833333333
426,2017-02-09,0.0,,0.0
426,2017-02-10,0.008375,,0.008375
426,2017-02-11,0.02804166666666667,,0.02804166666666667
426,2017-02-12,0.0008333333333333334,,0.0008333333333333334
426,2017-02-13,0.28991666666666666,,0.28991666666666666
426,2017-02-14,2.1155,,2.1155
426,2017-02-15,3.890041666666667,,3.890041666666667
426,2017-02-16,9.718041666666666,,9.718041666666666
426,2017-02-17,12.962541666666667,,12.962541666666667
426,2017-02-18,14.563333333333333,,14.563333333333333
426,2017-02-19,32.80979166666666,,32.80979166666666
426,2017-02-20,45.42154166666666,,45.42154166666666
426,2017-02-21,34.653,,34.653
426,2017-02-22,18.018291666666666,,18.018291666666666
426,2017-02-23,42.451166666666666,,42.451166666666666
426,2017-02-24,39.26883333333333,,39.26883333333333
426,2017-02-25,39.919958333333334,,39.919958333333334
426,2017-02-26,24.6005,,24.6005
426,2017-02-27,37.032625,,37.032625
426,2017-02-28,39.3455,,39.3455
426,2017-03-01,11.28875,,11.28875
426,2017-03-02,43.21570833333333,,43.21570833333333
426,2017-03-03,41.10208333333333,,41.10208333333333
426,2017-03-04,37.786791666666666,,37.786791666666666
426,2017-03-05,53.37795833333333,,53.37795833333333
426,2017-03-06,43.765791666666665,,43.765791666666665
426,2017-03-07,10.621791666666667,,10.621791666666667
426,2017-03-08,43.723958333333336,,43.723958333333336
426,2017-03-09,34.51466666666666,,34.51466666666666
426,2017-03-10,0.7503333333333333,,0.7503333333333333
426,2017-03-11,3.8642083333333335,,3.8642083333333335
426,2017-03-12,10.741750000000001,,10.741750000000001
426,2017-03-13,38.967166666666664,,38.967166666666664
426,2017-03-14,0.0,,0.0
426,2017-03-15,0.0005,,0.0005
426,2017-03-16,0.0003333333333333333,,0.0003333333333333333
426,2017-03-17,0.0006666666666666666,,0.0006666666666666666
426,2017-03-18,0.0,,0.0
426,2017-03-19,0.016083333333333335,,0.016083333333333335
426,2017-03-20,0.38529166666666664,,0.38529166666666664
426,2017-03-21,7.670125,,7.670125
426,2017-03-22,19.729833333333335,,19.729833333333335
426,2017-03-23,25.339458333333337,,25.339458333333337
426,2017-03-24,11.959666666666665,,11.959666666666665
426,2017-03-25,11.409333333333334,,11.409333333333334
426,2017-03-26,13.103041666666668,,13.103041666666668
426,2017-03-27,18.306,,18.306
426,2017-03-28,6.310416666666666,,6.310416666666666
426,2017-03-29,55.115833333333335,,55.115833333333335
426,2017-03-30,45.89033333333333,,45.89033333333333
426,2017-03-31,6.849374999999999,,6.849374999999999
426,2017-04-01,21.322458333333334,,21.322458333333334
426,2017-04-02,54.762541666666664,,54.762541666666664
426,2017-04-03,47.826541666666664,,47.826541666666664
426,2017-04-04,10.121875000000001,,10.121875000000001
426,2017-04-05,38.96845833333334,,38.96845833333334
426,2017-04-06,9.402791666666667,,9.402791666666667
426,2017-04-07,24.559,,24.559
426,2017-04-08,49.947833333333335,,49.947833333333335
426,2017-04-09,60.70454166666667,,60.70454166666667
426,2017-04-10,53.44466666666667,,53.44466666666667
426,2017-04-11,48.765791666666665,,48.765791666666665
426,2017-04-12,29.589250000000003,,29.589250000000003
426,2017-04-13,54.886583333333334,,54.886583333333334
426,2017-04-14,61.08258333333333,,61.08258333333333
426,2017-04-15,38.819625,,38.819625
426,2017-04-16,43.37016666666667,,43.37016666666667
426,2017-04-17,45.53787500000001,,45.53787500000001
426,2017-04-18,64.05054166666666,,64.05054166666666
426,2017-04-19,37.936708333333335,,37.936708333333335
426,2017-04-20,36.86170833333333,,36.86170833333333
426,2017-04-21,15.230375,,15.230375
426,2017-04-22,13.220999999999998,,13.220999999999998
426,2017-04-23,63.239125,,63.239125
426,2017-04-24,34.556666666666665,,34.556666666666665
426,2017-04-25,8.329833333333333,,8.329833333333333
426,2017-04-26,13.206375,,13.206375
426,2017-04-27,26.252208333333332,,26.252208333333332
426,2017-04-28,57.658500000000004,,57.658500000000004
426,2017-04-29,46.21479166666666,,46.21479166666666
426,2017-04-30,22.411833333333334,,22.411833333333334
426,2017-05-01,27.82133333333333,,27.82133333333333
426,2017-05-02,38.18620833333333,,38.18620833333333
426,2017-05-03,49.331375,,49.331375
426,2017-05-04,58.71658333333334,,58.71658333333334
426,2017-05-05,10.383791666666667,,10.383791666666667
426,2017-05-06,33.56970833333333,,33.56970833333333
426,2017-05-07,30.535833333333333,,30.535833333333333
426,2017-05-08,43.724333333333334,,43.724333333333334
426,2017-05-09,45.540416666666665,,45.540416666666665
426,2017-05-10,61.146458333333335,,61.146458333333335
426,2017-05-11,57.622749999999996,,57.622749999999996
426,2017-05-12,57.086000000000006,,57.086000000000006
426,2017-05-13,9.918625,,9.918625
426,2017-05-14,56.143499999999996,,56.143499999999996
426,2017-05-15,50.86029166666666,,50.86029166666666
426,2017-05-16,57.30016666666666,,57.30016666666666
426,2017-05-17,64.35408333333334,,64.35408333333334
426,2017-05-18,62.279625,,62.279625
426,2017-05-19,59.92054166666667,,59.92054166666667
426,2017-05-20,44.349291666666666,,44.349291666666666
426,2017-05-21,64.41858333333333,,64.41858333333333
426,2017-05-22,13.632833333333332,,13.632833333333332
426,2017-05-23,39.777750000000005,,39.777750000000005
426,2017-05-24,51.132875000000006,,51.132875000000006
426,2017-05-25,19.591166666666666,,19.591166666666666
426,2017-05-26,42.380208333333336,,42.380208333333336
426,2017-05-27,45.834333333333326,,45.834333333333326
426,2017-05-28,45.27408333333333,,45.27408333333333
426,2017-05-29,14.009416666666667,,14.009416666666667
426,2017-05-30,19.179041666666667,,19.179041666666667
426,2017-05-31,42.52766666666667,,42.52766666666667
426,2017-06-01,61.20616666666667,,61.20616666666667
426,2017-06-02,58.33983333333333,,58.33983333333333
426,2017-06-03,52.063208333333336,,52.063208333333336
426,2017-06-04,27.317375,,27.317375
426,2017-06-05,32.453125,,32.453125
426,2017-06-06,19.443916666666667,,19.443916666666667
426,2017-06-07,54.302125,,54.302125
426,2017-06-08,51.193375,,51.193375
426,2017-06-09,58.76083333333333,,58.76083333333333
426,2017-06-10,52.49904166666667,,52.49904166666667
426,2017-06-11,65.56091666666667,,65.56091666666667
426,2017-06-12,64.789125,,64.789125
426,2017-06-13,60.264041666666664,,60.264041666666664
426,2017-06-14,66.994875,,66.994875
426,2017-06-15,47.43654166666667,,47.43654166666667
426,2017-06-16,27.904958333333337,,27.904958333333337
426,2017-06-17,32.67483333333333,,32.67483333333333
426,2017-06-18,52.19954166666667,,52.19954166666667
426,2017-06-19,29.498125,,29.498125
426,2017-06-20,67.29220833333333,,67.29220833333333
426,2017-06-21,53.106500000000004,,53.106500000000004
426,2017-06-22,64.618875,,64.618875
426,2017-06-23,40.882875,,40.882875
426,2017-06-24,63.056041666666665,,63.056041666666665
426,2017-06-25,53.784875,,53.784875
426,2017-06-26,59.29233333333334,,59.29233333333334
426,2017-06-27,56.08595833333334,,56.08595833333334
426,2017-06-28,60.634125000000004,,60.634125000000004
426,2017-06-29,52.350249999999996,,52.350249999999996
426,2017-06-30,44.78266666666667,,44.78266666666667
426,2017-07-01,35.969458333333336,,35.969458333333336
426,2017-07-02,58.56191666666667,,58.56191666666667
426,2017-07-03,60.440125,,60.440125
426,2017-07-04,65.96883333333334,,65.96883333333334
426,2017-07-05,57.961625,,57.961625
426,2017-07-06,40.88741666666667,,40.88741666666667
426,2017-07-07,32.47866666666667,,32.47866666666667
426,2017-07-08,45.570375000000006,,45.570375000000006
426,2017-07-09,67.14,,67.14
426,2017-07-10,47.559875,,47.559875
426,2017-07-11,42.97204166666666,,42.97204166666666
426,2017-07-12,47.11658333333333,,47.11658333333333
426,2017-07-13,34.987625,,34.987625
426,2017-07-14,13.624416666666667,,13.624416666666667
426,2017-07-15,53.15758333333333,,53.15758333333333
426,2017-07-16,62.009875,,62.009875
426,2017-07-17,55.151,,55.151
426,2017-07-18,52.6615,,52.6615
426,2017-07-19,64.282,,64.282
426,2017-07-20,54.344458333333336,,54.344458333333336
426,2017-07-21,61.556041666666665,,61.556041666666665
426,2017-07-22,44.22541666666667,,44.22541666666667
426,2017-07-23,40.32745833333333,,40.32745833333333
426,2017-07-24,22.737708333333334,,22.737708333333334
426,2017-07-25,19.848375,,19.848375
426,2017-07-26,52.864625,,52.864625
426,2017-07-27,20.386166666666664,,20.386166666666664
426,2017-07-28,43.90633333333333,,43.90633333333333
426,2017-07-29,55.774750000000004,,55.774750000000004
426,2017-07-30,64.81383333333333,,64.81383333333333
426,2017-07-31,62.201166666666666,,62.201166666666666
426,2017-08-01,60.293,,60.293
426,2017-08-02,32.593125,,32.593125
426,2017-08-03,58.38283333333334,,58.38283333333334
426,2017-08-04,48.055375,,48.055375
426,2017-08-05,39.16941666666667,,39.16941666666667
426,2017-08-06,47.47595833333333,,47.47595833333333
426,2017-08-07,8.932958333333334,,8.932958333333334
426,2017-08-08,43.408208333333334,,43.408208333333334
426,2017-08-09,60.95570833333333,,60.95570833333333
426,2017-08-10,57.55020833333333,,57.55020833333333
426,2017-08-11,34.556000000000004,,34.556000000000004
426,2017-08-12,45.12891666666667,,45.12891666666667
426,2017-08-13,55.054750000000006,,55.054750000000006
426,2017-08-14,36.10483333333333,,36.10483333333333
426,2017-08-15,18.25133333333333,,18.25133333333333
426,2017-08-16,46.47470833333333,,46.47470833333333
426,2017-08-17,53.00591666666667,,53.00591666666667
426,2017-08-18,24.043583333333334,,24.043583333333334
426,2017-08-19,51.834666666666664,,51.834666666666664
426,2017-08-20,0.0,,0.0
426,2017-08-21,15.975875,,15.975875
426,2017-08-22,7.182333333333333,,7.182333333333333
426,2017-08-23,19.980458333333335,,19.980458333333335
426,2017-08-24,25.175208333333334,,25.175208333333334
426,2017-08-25,21.796958333333333,,21.796958333333333
426,2017-08-26,16.698541666666667,,16.698541666666667
426,2017-08-27,16.68825,,16.68825
426,2017-08-28,17.388041666666666,,17.388041666666666
426,2017-08-29,12.639958333333333,,12.639958333333333
426,2017-08-30,26.597041666666666,,26.597041666666666
426,2017-08-31,32.536541666666665,,32.536541666666665
426,2017-09-01,58.897166666666664,,58.897166666666664
426,2017-09-02,37.59704166666666,,37.59704166666666
426,2017-09-03,16.139958333333333,,16.139958333333333
426,2017-09-04,55.3965,,55.3965
426,2017-09-05,37.499500000000005,,37.499500000000005
426,2017-09-06,7.06,,7.06
426,2017-09-07,40.36720833333333,,40.36720833333333
426,2017-09-08,42.73445833333333,,42.73445833333333
426,2017-09-09,42.543,,42.543
426,2017-09-10,54.30154166666667,,54.30154166666667
426,2017-09-11,52.548875,,52.548875
426,2017-09-12,45.18687499999999,,45.18687499999999
426,2017-09-13,40.806041666666665,,40.806041666666665
426,2017-09-14,19.003916666666665,,19.003916666666665
426,2017-09-15,41.464875,,41.464875
426,2017-09-16,35.48308333333333,,35.48308333333333
426,2017-09-17,36.228500000000004,,36.228500000000004
426,2017-09-18,46.524166666666666,,46.524166666666666
426,2017-09-19,22.485666666666663,,22.485666666666663
426,2017-09-20,19.938083333333335,,19.938083333333335
426,2017-09-21,36.04566666666667,,36.04566666666667
426,2017-09-22,49.11329166666667,,49.11329166666667
426,2017-09-23,49.12633333333333,,49.12633333333333
426,2017-09-24,47.29045833333333,,47.29045833333333
426,2017-09-25,45.93695833333334,,45.93695833333334
426,2017-09-26,43.116625,,43.116625
426,2017-09-27,43.24616666666666,,43.24616666666666
426,2017-09-28,48.190125,,48.190125
426,2017-09-29,32.45583333333334,,32.45583333333334
426,2017-09-30,7.390041666666666,,7.390041666666666
426,2017-10-01,48.081375,,48.081375
426,2017-10-02,47.36204166666667,,47.36204166666667
426,2017-10-03,46.69466666666667,,46.69466666666667
426,2017-10-04,46.30350000000001,,46.30350000000001
426,2017-10-05,29.94141666666667,,29.94141666666667
426,2017-10-06,40.57233333333333,,40.57233333333333
426,2017-10-07,29.188791666666663,,29.188791666666663
426,2017-10-08,19.150333333333332,,19.150333333333332
426,2017-10-09,11.795583333333333,,11.795583333333333
426,2017-10-10,35.49158333333333,,35.49158333333333
426,2017-10-11,20.253916666666665,,20.253916666666665
426,2017-10-12,37.98833333333334,,37.98833333333334
426,2017-10-13,37.272875,,37.272875
426,2017-10-14,20.877708333333334,,20.877708333333334
426,2017-10-15,23.305374999999998,,23.305374999999998
426,2017-10-16,17.240291666666668,,17.240291666666668
426,2017-10-17,43.47075,,43.47075
426,2017-10-18,40.907625,,40.907625
426,2017-10-19,41.026041666666664,,41.026041666666664
426,2017-10-20,40.33075,,40.33075
426,2017-10-21,36.64454166666667,,36.64454166666667
426,2017-10-22,34.418749999999996,,34.418749999999996
426,2017-10-23,20.807416666666665,,20.807416666666665
426,2017-10-24,7.311166666666666,,7.311166666666666
426,2017-10-25,16.506625,,16.506625
426,2017-10-26,14.74225,,14.74225
426,2017-10-27,37.246125,,37.246125
426,2017-10-28,33.20258333333333,,33.20258333333333
426,2017-10-29,3.7735,,3.7735
426,2017-10-30,21.966875,,21.966875
426,2017-10-31,34.33920833333333,,34.33920833333333
426,2017-11-01,4.933666666666666,,4.933666666666666
426,2017-11-02,24.183000000000003,,24.183000000000003
426,2017-11-03,17.110125,,17.110125
426,2017-11-04,29.03,,29.03
426,2017-11-05,12.009083333333335,,12.009083333333335
426,2017-11-06,7.729208333333333,,7.729208333333333
426,2017-11-07,11.449916666666667,,11.449916666666667
426,2017-11-08,28.408291666666667,,28.408291666666667
426,2017-11-09,23.799541666666666,,23.799541666666666
426,2017-11-10,32.06191666666667,,32.06191666666667
426,2017-11-11,34.727875000000004,,34.727875000000004
426,2017-11-12,31.416083333333333,,31.416083333333333
426,2017-11-13,9.910208333333333,,9.910208333333333
426,2017-11-14,13.072333333333333,,13.072333333333333
426,2017-11-15,31.100333333333335,,31.100333333333335
426,2017-11-16,15.183708333333334,,15.183708333333334
426,2017-11-17,32.29425,,32.29425
426,2017-11-18,8.243541666666667,,8.243541666666667
426,2017-11-19,8.489041666666667,,8.489041666666667
426,2017-11-20,18.844416666666667,,18.844416666666667
426,2017-11-21,25.3145,,25.3145
426,2017-11-22,5.920583333333333,,5.920583333333333
426,2017-11-23,28.996791666666667,,28.996791666666667
426,2017-11-24,27.268958333333334,,27.268958333333334
426,2017-11-25,23.929083333333335,,23.929083333333335
426,2017-11-26,16.35025,,16.35025
426,2017-11-27,22.32620833333333,,22.32620833333333
426,2017-11-28,25.263041666666666,,25.263041666666666
426,2017-11-29,25.05604166666667,,25.05604166666667
426,2017-11-30,21.99225,,21.99225
426,2017-12-01,18.316416666666665,,18.316416666666665
426,2017-12-02,19.571625,,19.571625
426,2017-12-03,8.6615,,8.6615
426,2017-12-04,6.769583333333333,,6.769583333333333
426,2017-12-05,7.725291666666667,,7.725291666666667
426,2017-12-06,18.25525,,18.25525
426,2017-12-07,24.154958333333337,,24.154958333333337
426,2017-12-08,11.188833333333333,,11.188833333333333
426,2017-12-09,1.8034583333333334,,1.8034583333333334
426,2017-12-10,0.3020833333333333,,0.3020833333333333
426,2017-12-11,1.09125,,1.09125
426,2017-12-12,1.4245833333333333,,1.4245833333333333
426,2017-12-13,14.597666666666667,,14.597666666666667
426,2017-12-14,1.0820833333333333,,1.0820833333333333
426,2017-12-15,0.6094166666666666,,0.6094166666666666
426,2017-12-16,1.0065,,1.0065
426,2017-12-17,1.5195416666666668,,1.5195416666666668
426,2017-12-18,4.903708333333333,,4.903708333333333
426,2017-12-19,15.335958333333332,,15.335958333333332
426,2017-12-20,16.312541666666664,,16.312541666666664
426,2017-12-21,22.071625,,22.071625
426,2017-12-22,4.433625,,4.433625
426,2017-12-23,1.3894166666666665,,1.3894166666666665
426,2017-12-24,13.614666666666666,,13.614666666666666
426,2017-12-25,0.5208333333333334,,0.5208333333333334
426,2017-12-26,0.987,,0.987
426,2017-12-27,1.487,,1.487
426,2017-12-28,1.7162083333333333,,1.7162083333333333
426,2017-12-29,1.8333333333333333,,1.8333333333333333
426,2017-12-30,0.30083333333333334,,0.30083333333333334
426,2017-12-31,0.6342083333333334,,0.6342083333333334
426,2018-01-01,1.3855000000000002,,1.3855000000000002
426,2018-01-02,1.3724999999999998,,1.3724999999999998
426,2018-01-03,1.4909166666666664,,1.4909166666666664
426,2018-01-04,0.002625,,0.002625
426,2018-01-05,0.01825,,0.01825
426,2018-01-06,0.211,,0.211
426,2018-01-07,0.24225,,0.24225
426,2018-01-08,0.04558333333333334,,0.04558333333333334
426,2018-01-09,0.1914583333333333,,0.1914583333333333
426,2018-01-10,1.58075,,1.58075
426,2018-01-11,3.793041666666667,,3.793041666666667
426,2018-01-12,4.489583333333333,,4.489583333333333
426,2018-01-13,16.580791666666666,,16.580791666666666
426,2018-01-14,29.605583333333332,,29.605583333333332
426,2018-01-15,19.703125,,19.703125
426,2018-01-16,6.28,,6.28
426,2018-01-17,0.0012916666666666667,,0.0012916666666666667
426,2018-01-18,0.3724166666666667,,0.3724166666666667
426,2018-01-19,0.18616666666666667,,0.18616666666666667
426,2018-01-20,0.6497916666666667,,0.6497916666666667
426,2018-01-21,18.046958333333333,,18.046958333333333
426,2018-01-22,7.166708333333333,,7.166708333333333
426,2018-01-23,13.281333333333334,,13.281333333333334
426,2018-01-24,26.127666666666666,,26.127666666666666
426,2018-01-25,34.135416666666664,,34.135416666666664
426,2018-01-26,32.69275,,32.69275
426,2018-01-27,25.23575,,25.23575
426,2018-01-28,10.619875,,10.619875
426,2018-01-29,24.675833333333333,,24.675833333333333
426,2018-01-30,9.405,,9.405
426,2018-01-31,29.733125,,29.733125
426,2018-02-01,8.675833333333333,,8.675833333333333
426,2018-02-02,4.247375,,4.247375
426,2018-02-03,21.580833333333334,,21.580833333333334
426,2018-02-04,9.06775,,9.06775
426,2018-02-05,38.306041666666665,,38.306041666666665
426,2018-02-06,19.075541666666666,,19.075541666666666
426,2018-02-07,0.38025,,0.38025
426,2018-02-08,4.208333333333333,,4.208333333333333
426,2018-02-09,3.170625,,3.170625
426,2018-02-10,2.5898333333333334,,2.5898333333333334
426,2018-02-11,2.595083333333333,,2.595083333333333
426,2018-02-12,23.50525,,23.50525
426,2018-02-13,40.80079166666667,,40.80079166666667
426,2018-02-14,17.282625,,17.282625
426,2018-02-15,19.616,,19.616
426,2018-02-16,7.4388749999999995,,7.4388749999999995
426,2018-02-17,32.349,,32.349
426,2018-02-18,4.1628750000000005,,4.1628750000000005
426,2018-02-19,12.834625,,12.834625
426,2018-02-20,34.418,,34.418
426,2018-02-21,40.54695833333333,,40.54695833333333
426,2018-02-22,4.8725,,4.8725
426,2018-02-23,6.108125,,6.108125
426,2018-02-24,15.453249999999999,,15.453249999999999
426,2018-02-25,6.205708333333334,,6.205708333333334
426,2018-02-26,27.26954166666667,,27.26954166666667
426,2018-02-27,47.46366666666666,,47.46366666666666
426,2018-02-28,38.703250000000004,,38.703250000000004
426,2018-03-01,26.05479166666667,,26.05479166666667
426,2018-03-02,0.0012916666666666667,,0.0012916666666666667
426,2018-03-03,1.2097083333333334,,1.2097083333333334
426,2018-03-04,10.298166666666667,,10.298166666666667
426,2018-03-05,17.272166666666667,,17.272166666666667
426,2018-03-06,48.68108333333333,,48.68108333333333
426,2018-03-07,0.18100000000000002,,0.18100000000000002
426,2018-03-08,0.0012916666666666667,,0.0012916666666666667
426,2018-03-09,0.05470833333333333,,0.05470833333333333
426,2018-03-10,0.379,,0.379
426,2018-03-11,2.8502916666666667,,2.8502916666666667
426,2018-03-12,8.177083333333334,,8.177083333333334
426,2018-03-13,0.371125,,0.371125
426,2018-03-14,8.691416666666667,,8.691416666666667
426,2018-03-15,20.855583333333332,,20.855583333333332
426,2018-03-16,29.05225,,29.05225
426,2018-03-17,52.36995833333333,,52.36995833333333
426,2018-03-18,56.71625,,56.71625
426,2018-03-19,56.997458333333334,,56.997458333333334
426,2018-03-20,26.474041666666665,,26.474041666666665
426,2018-03-21,11.438875000000001,,11.438875000000001
426,2018-03-22,21.024833333333333,,21.024833333333333
426,2018-03-23,39.48708333333334,,39.48708333333334
426,2018-03-24,51.251374999999996,,51.251374999999996
426,2018-03-25,32.83479166666667,,32.83479166666667
426,2018-03-26,58.61604166666667,,58.61604166666667
426,2018-03-27,33.27095833333333,,33.27095833333333
426,2018-03-28,30.685000000000002,,30.685000000000002
426,2018-03-29,9.24225,,9.24225
426,2018-03-30,7.6902083333333335,,7.6902083333333335
426,2018-03-31,60.05608333333333,,60.05608333333333
426,2018-04-01,35.11983333333333,,35.11983333333333
426,2018-04-02,5.311208333333333,,5.311208333333333
426,2018-04-03,8.34125,,8.34125
426,2018-04-04,17.524874999999998,,17.524874999999998
426,2018-04-05,50.59383333333333,,50.59383333333333
426,2018-04-06,25.774833333333333,,25.774833333333333
426,2018-04-07,40.81120833333333,,40.81120833333333
426,2018-04-08,43.308708333333335,,43.308708333333335
426,2018-04-09,54.63554166666666,,54.63554166666666
426,2018-04-10,28.997500000000002,,28.997500000000002
426,2018-04-11,45.7175,,45.7175
426,2018-04-12,28.218791666666664,,28.218791666666664
426,2018-04-13,41.69533333333333,,41.69533333333333
426,2018-04-14,56.85554166666666,,56.85554166666666
426,2018-04-15,13.414083333333332,,13.414083333333332
426,2018-04-16,22.440166666666666,,22.440166666666666
426,2018-04-17,23.911583333333336,,23.911583333333336
426,2018-04-18,34.608125,,34.608125
426,2018-04-19,17.040375,,17.040375
426,2018-04-20,57.53520833333334,,57.53520833333334
426,2018-04-21,65.39191666666666,,65.39191666666666
426,2018-04-22,65.36329166666667,,65.36329166666667
426,2018-04-23,65.7045,,65.7045
426,2018-04-24,58.11729166666667,,58.11729166666667
426,2018-04-25,17.793083333333332,,17.793083333333332
426,2018-04-26,55.76695833333333,,55.76695833333333
426,2018-04-27,8.976666666666667,,8.976666666666667
426,2018-04-28,55.293125,,55.293125
426,2018-04-29,28.586,,28.586
426,2018-04-30,27.670666666666666,,27.670666666666666
426,2018-05-01,63.90504166666667,,63.90504166666667
426,2018-05-02,62.38025,,62.38025
426,2018-05-03,50.36079166666667,,50.36079166666667